[Iaude] MPEC J82: 2024 JU1 [a=2.22,e=0.52,i=4.6,H=25.5]
    mpec at cfa.harvard.edu 
    mpec at cfa.harvard.edu
       
    Sun May  5 12:54:44 EDT 2024
    
    
  
M.P.E.C. 2024-J82                                   Issued 2024 May 5, 16:53 UT
     The Minor Planet Electronic Circulars contain information on unusual
         minor planets, routine data on comets and natural satellites,
         and occasional editorial announcements.  They are published
    on behalf of Division F of the International Astronomical Union by the
          Minor Planet Center, Smithsonian Astrophysical Observatory,
                          Cambridge, MA 02138, U.S.A.
			  
             Prepared using the Tamkin Foundation Computer Network
                              MPC at CFA.HARVARD.EDU
            URL https://www.minorplanetcenter.net/    ISSN 1523-6714
                                    2024 JU1                                    
Observations:
     K24J01U* C2024 05 02.39205215 52 19.857+13 21 55.95         21.48wXEJ082F52
     K24J01U  C2024 05 02.40318115 52 26.326+13 21 09.68         21.29wXEJ082F52
     K24J01U  C2024 05 02.41434715 52 32.851+13 20 23.14         21.47wXEJ082F52
     K24J01U  C2024 05 02.47552815 53 08.374+13 16 04.59         21.53GVEJ082F52
     K24J01U  C2024 05 02.47617915 53 08.780+13 16 02.03         21.12GVEJ082F52
     K24J01U KC2024 05 03.30001716 01 53.972+12 14 58.96         21.55GVEJ082I52
     K24J01U KC2024 05 03.30247716 01 55.448+12 14 47.94               VEJ082I52
     K24J01U KB2024 05 03.30330 16 01 54.199+12 14 32.50         21.1 GVEJ082734
     K24J01U KC2024 05 03.30411016 01 56.456+12 14 40.13         21.35GVEJ082I52
     K24J01U KC2024 05 03.30573416 01 57.428+12 14 33.25         20.99GVEJ082I52
     K24J01U KB2024 05 03.33738 16 02 14.714+12 11 57.16         20.8 GVEJ082734
     K24J01U 1C2024 05 03.41988316 03 05.987+12 05 50.06         20.96GVEJ082G96
     K24J01U 1C2024 05 03.42507316 03 09.158+12 05 26.52         20.84GVEJ082G96
     K24J01U 1C2024 05 03.43548016 03 15.448+12 04 37.49         21.44GVEJ082G96
     K24J01U !C2024 05 03.43580 16 03 16.48 +12 04 33.1          20.6 GVEJ082673
     K24J01U !C2024 05 03.43776 16 03 17.68 +12 04 24.2                VEJ082673
     K24J01U  C2024 05 03.45881516 03 35.039+12 03 15.65         20.72GVEJ082F52
     K24J01U  C2024 05 03.45964016 03 35.468+12 03 12.10         20.86GVEJ082F52
     K24J01U !C2024 05 04.42161 16 14 00.76 +10 46 08.1          20.6 GVEJ082673
     K24J01U !C2024 05 04.42384 16 14 02.14 +10 45 56.8                VEJ082673
     K24J01U  C2024 05 04.46849416 14 34.467+10 42 44.44         21.34GVEJ082F51
     K24J01U  C2024 05 04.46931316 14 34.977+10 42 40.33         21.25GVEJ082F51
     K24J01U 1C2024 05 04.98283 16 20 16.65 +09 58 36.3          21.2 VXEJ082033
     K24J01U 1C2024 05 04.98443 16 20 17.62 +09 58 28.2          21.0 VXEJ082033
     K24J01U 1C2024 05 04.98601 16 20 18.63 +09 58 20.4          21.1 VXEJ082033
     K24J01U 1C2024 05 04.98758 16 20 19.65 +09 58 12.1          21.0 VXEJ082033
Observer details:
033 Karl Schwarzschild Observatory, Tautenburg.  Observers S. Melnikov, C.
    Hogner, F. Ludwig, M. Hartmann, B. Stecklum.  Measurer B. Stecklum.
    1.34-m f/3 Schmidt + CCD.
673 Table Mountain Observatory, Wrightwood.  Observer J. Pittichova.  1.0-m
    f/15 reflector + CCD.
734 Farpoint Observatory, Eskridge.  Observers D. Cromer, G. Hug, D. Goodin,
    R. Valentine, P. Lessig.  Measurer G. Hug.  0.69-m f/3.54 reflector + CMO.
F51 Pan-STARRS 1, Haleakala.  Observers J. Herman, T. Lowe, P. Minguez, A.
    Schultz, I. Smith.  Measurers K. Chambers, T. de Boer, J. Fairlamb, H.
    Gao, M. Huber, C.-C. Lin, E. Magnier, Y. Ramanjooloo, R. Wainscoat, R.
    Weryk.  1.8-m Ritchey-Chretien + CCD.
F52 Pan-STARRS 2, Haleakala.  Observers J. Herman, T. Lowe, P. Minguez, A.
    Schultz, I. Smith.  Measurers K. Chambers, T. de Boer, J. Fairlamb, H.
    Gao, M. Huber, C.-C. Lin, E. Magnier, Y. Ramanjooloo, R. Wainscoat, R.
    Weryk.  1.8-m Ritchey-Chretien + CCD.
G96 Mt. Lemmon Survey.  Observer H. Groeller.  Measurers T. Beuden, V. F.
    Carvajal, D. Fay, J. B. Fazekas, D. C. Fuls, A. R. Gibbs, A. D. Grauer, H.
    Groeller, J. K. Hogan, R. A. Kowalski, S. M. Larson, G. J. Leonard, D.
    Rankin, R. L. Seaman, F. C. Shelly, K. W. Wierzchos.  1.5-m reflector +
    10K CCD.
I52 Steward Observatory, Mt. Lemmon Station.  Observer V. F. Carvajal.
    Measurers T. Beuden, V. F. Carvajal, D. Fay, J. B. Fazekas, D. C. Fuls, A.
    R. Gibbs, A. D. Grauer, H. Groeller, J. K. Hogan, R. A. Kowalski, S. M.
    Larson, G. J. Leonard, D. Rankin, R. L. Seaman, F. C. Shelly, K. W.
    Wierzchos.  1.0-m prime focus + CCD.
Orbital elements:
2024 JU1                                                 Earth MOID = 0.0565 AU
Epoch 2024 Mar. 31.0 TT = JDT 2460400.5                 Bell                    
M 347.50213              (2000.0)            P               Q                  
n   0.29780922     Peri.  162.35454     -0.59802689     +0.79794752             
a   2.2208060      Node    70.85188     -0.74459590     -0.51845839             
e   0.5208659      Incl.    4.56118     -0.29654811     -0.30737706             
P   3.31           H   25.53          G   0.15           U   8                  
Residuals in seconds of arc
240502 F52  0.0   0.0     240503 I52  0.1-  0.1+    240504 673  0.3+  0.0
240502 F52  0.5-  0.0     240503 734  0.1+  0.2-    240504 673  0.4+  0.3-
240502 F52  0.3-  0.1+    240503 G96  0.4-  0.1-    240504 F51  0.1-  0.1-
240502 F52  0.2-  0.2-    240503 G96  0.1+  0.5+    240504 F51  0.0   0.1-
240502 F52  0.2+  0.0     240503 G96  0.0   0.0     240504 033  0.5+  0.0
240503 I52  0.4-  0.1+    240503 673  0.3+  0.1-    240504 033  0.2-  0.1+
240503 I52  0.4-  0.1+    240503 673  0.5+  0.1+    240504 033  0.1-  0.3+
240503 734  0.4+  0.5-    240503 F52  0.1+  0.1+    240504 033  0.2+  0.0
240503 I52  0.1-  0.3-    240503 F52 (0.8-  0.3+)
Ephemeris:
2024 JU1                 a,e,i = 2.22, 0.52, 5                   q = 1.0641
Date    TT    R. A. (2000) Decl.     Delta      r    Elong.  Phase     V
2024 04 05    13 16 00.4 +21 24 52   0.1674  1.1511   152.1    24.0    23.1
...
2024 04 20    14 12 52.4 +21 20 34   0.1075  1.0961   146.8    30.2    22.2
...
2024 04 28    15 10 02.4 +17 36 22   0.08362 1.0772   146.1    31.4    21.6
...
2024 05 04    16 09 24.7 +11 21 13   0.07180 1.0683   145.6    32.2    21.3
2024 05 05    16 20 26.1 +09 58 35   0.07052 1.0673   145.3    32.5    21.3
2024 05 06    16 31 40.0 +08 30 48   0.06947 1.0665   145.0    32.9    21.3
...
2024 05 12    17 39 59.0 -01 22 07   0.06820 1.0640   140.9    36.8    21.3
...
2024 05 20    18 57 50.1 -13 21 19   0.07898 1.0684   134.1    42.8    21.8
...
2024 06 04    20 17 55.2 -25 10 50   0.1202  1.0991   132.3    43.0    22.8
M. P. C. Staff               (C) Copyright 2024 MPC           M.P.E.C. 2024-J82
    
    
More information about the Iaude
mailing list